Date,TemperatureHighF,TemperatureAvgF,TemperatureLowF,DewpointHighF,DewpointAvgF,DewpointLowF,HumidityHigh,HumidityAvg,HumidityLow,PressureMaxIn,PressureMinIn,WindSpeedMaxMPH,WindSpeedAvgMPH,GustSpeedMaxMPH,PrecipitationSumIn
2013-1-1,48,42,36,48,39,20,100,88,46,30.12,29.94,4,0,4,1.04
2013-1-2,46,39,36,46,37,32,100,92,80,30.12,29.94,4,0,4,0.29
2013-1-3,38,34,23,36,29,20,100,84,50,30.30,30.06,6,0,6,1.12
2013-1-4,43,28,19,27,16,1,100,68,20,30.33,30.24,6,1,6,0.29
2013-1-5,50,34,19,36,20,13,95,62,23,30.33,30.18,4,1,4,0.29
2013-1-6,45,37,31,38,30,20,100,78,42,30.24,30.06,7,1,7,0.29
2013-1-7,54,33,21,29,20,11,100,64,20,30.36,30.18,6,1,6,0.29
2013-1-8,56,38,23,43,29,18,100,74,38,30.36,30.27,10,1,10,0.29
2013-1-9,59,51,43,51,46,42,100,87,59,30.41,30.30,4,0,4,0.29
2013-1-10,64,50,44,60,45,34,100,88,35,30.42,30.21,27,2,27,0.00
2013-1-11,64,61,58,60,50,41,100,68,46,30.24,30.12,27,3,27,0.33
2013-1-12,70,63,57,63,51,40,100,69,35,30.18,30.06,22,2,22,0.04
2013-1-13,66,64,62,54,45,33,76,52,45,30.12,30.03,22,4,22,0.34
2013-1-14,63,55,45,61,52,44,100,92,61,30.18,30.03,13,1,13,1.66
2013-1-15,63,57,46,59,53,46,100,87,60,30.12,29.94,15,1,15,2.15
2013-1-16,63,57,52,59,53,48,100,89,58,30.03,29.91,14,1,14,1.25
2013-1-17,55,45,31,53,43,25,100,92,46,30.21,29.68,0,0,0,1.28
2013-1-18,51,34,25,30,23,11,97,69,21,30.44,30.18,4,1,4,0.00
2013-1-19,54,35,22,30,19,5,100,61,15,30.41,30.18,8,1,230,0.00
2013-1-20,55,37,24,32,22,10,100,63,19,30.21,30.06,6,1,6,0.00
2013-1-21,48,34,22,30,14,-1,99,54,20,30.12,30.06,14,2,14,0.00
2013-1-22,36,28,22,2,-6,-10,31,22,19,30.24,30.09,10,3,10,7.09
2013-1-23,46,32,25,19,4,-9,77,32,20,30.30,30.12,8,1,8,7.09
2013-1-24,44,36,21,31,17,-7,87,48,15,30.30,30.06,12,3,12,0.00
2013-1-25,33,28,21,33,18,-1,100,69,27,30.30,30.06,5,1,5,0.04
2013-1-26,50,35,26,34,30,19,100,86,31,30.27,30.12,4,0,4,0.00
2013-1-27,52,37,22,30,21,-46,99,60,29,30.41,30.27,8,1,8,0.00
2013-1-28,61,47,38,44,30,18,99,56,40,30.39,30.24,11,1,11,7.13
2013-1-29,65,58,36,62,53,36,100,84,47,30.27,29.97,27,4,27,0.09
2013-1-30,65,57,38,63,55,38,100,96,79,30.00,29.62,30,4,30,4.27
2013-1-31,40,34,29,38,26,21,100,72,58,30.09,29.74,13,3,13,0.04
2013-2-1,40,29,19,32,17,9,100,63,47,30.30,30.03,14,3,14,0.00
2013-2-2,34,26,16,34,23,13,100,90,55,30.30,30.06,2,0,2,0.00
2013-2-3,44,35,29,33,25,18,100,69,44,30.06,29.94,0,0,0,0.33
2013-2-4,48,33,22,29,23,17,100,69,36,30.12,29.94,5,1,6,11.86
2013-2-5,53,38,31,39,33,27,100,82,51,30.06,29.94,5,1,5,0.00
2013-2-6,60,40,26,43,28,21,100,71,27,30.18,30.03,6,1,8,0.00
2013-2-7,52,43,30,45,35,28,100,76,45,30.18,29.94,15,2,15,11.90
2013-2-8,50,43,29,47,40,26,100,90,50,30.15,29.91,8,1,8,0.04
2013-2-9,60,38,21,30,25,20,100,67,26,30.27,30.12,6,1,6,0.04
2013-2-10,55,47,34,51,31,20,100,56,28,30.30,30.06,23,4,23,0.70
2013-2-11,56,52,49,54,50,43,100,91,65,30.09,30.03,10,2,16,0.35
2013-2-12,54,45,33,44,36,23,100,76,36,30.09,29.82,4,1,4,0.35
2013-2-13,50,42,32,47,36,27,100,82,58,29.94,29.71,13,2,13,0.35
2013-2-14,51,38,29,32,27,22,100,65,41,30.06,29.94,7,1,7,0.00
2013-2-15,57,39,24,41,29,23,100,73,30,30.12,29.94,13,1,13,0.00
2013-2-16,36,29,24,32,20,7,100,70,38,30.03,29.91,9,2,15,0.00
2013-2-17,37,26,16,12,8,3,70,45,31,30.21,30.03,12,2,12,0.00
2013-2-18,54,36,17,23,17,12,94,51,28,30.30,28.14,28,3,28,1.62
2013-2-19,51,42,35,42,24,8,100,56,29,30.09,29.94,34,4,34,0.17
2013-2-20,46,34,24,14,9,4,58,36,27,30.18,30.06,9,2,9,0.00
2013-2-21,65,41,21,40,22,10,100,52,24,30.18,29.94,13,2,13,0.54
2013-2-22,48,44,40,45,37,31,100,77,62,30.15,30.00,23,2,23,0.45
2013-2-23,57,48,41,53,46,41,100,92,66,30.03,29.82,5,1,5,0.46
2013-2-24,59,42,28,42,29,19,100,70,27,30.06,29.88,7,1,7,15.91
2013-2-25,53,41,27,38,29,23,100,66,39,30.03,29.82,22,4,22,0.00
2013-2-26,52,46,38,42,36,28,83,70,59,29.82,29.56,36,7,36,0.74
2013-2-27,51,41,36,39,29,24,100,65,42,29.88,29.71,13,2,13,0.09
2013-2-28,39,34,32,30,21,18,69,59,55,29.94,29.79,8,3,8,0.00
2013-3-1,36,33,31,27,23,19,81,66,57,29.94,29.88,6,2,6,0.00
2013-3-2,35,31,26,30,23,14,100,73,56,29.97,29.88,9,2,9,0.00
2013-3-3,35,28,22,18,13,9,78,55,46,30.03,29.94,10,3,10,0.00
2013-3-4,53,37,18,29,19,10,92,52,31,30.09,30.00,13,2,13,0.00
2013-3-5,56,45,33,50,36,20,100,72,43,30.03,29.68,22,3,22,0.45
2013-3-6,32,29,26,26,19,14,84,65,55,30.15,29.82,16,4,16,0.00
2013-3-7,52,33,23,29,24,19,100,74,41,30.24,30.09,8,1,8,0.05
2013-3-8,59,37,20,27,22,17,100,64,27,30.27,30.18,8,1,8,0.00
2013-3-9,63,44,24,30,25,21,100,55,26,30.30,30.18,8,2,8,0.00
2013-3-10,64,52,38,36,29,26,72,45,25,30.21,30.06,20,3,20,0.00
2013-3-11,58,54,51,53,44,36,100,71,45,30.09,29.82,31,6,33,1.16
2013-3-12,53,43,33,51,33,24,100,72,38,30.09,29.82,8,2,8,0.08
2013-3-13,45,35,27,30,21,11,100,61,35,30.21,30.06,13,3,13,0.00
2013-3-14,48,33,20,19,13,9,70,44,28,30.27,30.18,12,2,12,0.00
2013-3-15,68,48,27,37,30,18,100,53,30,30.21,29.97,12,2,12,0.00
2013-3-16,71,59,45,43,38,33,64,46,35,30.00,29.88,12,3,12,18.48
2013-3-17,68,57,44,45,40,0,83,54,38,30.00,29.91,8,2,8,0.00
2013-3-18,58,54,43,54,45,40,100,75,52,30.00,29.82,23,4,23,0.54
2013-3-19,57,46,33,47,37,27,100,74,48,30.09,29.85,0,0,0,0.00
2013-3-20,53,39,27,34,29,23,100,71,48,30.09,29.85,13,2,13,0.00
2013-3-21,38,30,22,32,17,11,89,58,38,29.94,29.85,12,3,12,17.90
2013-3-22,46,34,22,33,22,14,82,61,42,30.03,29.94,4,1,4,0.00
2013-3-23,56,45,38,48,41,31,100,88,62,30.03,29.76,11,1,11,0.16
2013-3-24,55,49,38,50,44,26,100,83,62,29.85,29.50,23,3,23,1.17
2013-3-25,38,31,28,27,21,18,96,66,58,29.97,29.65,13,4,13,1.04
2013-3-26,36,31,28,24,21,18,74,65,58,30.21,29.94,11,3,13,1.04
2013-3-27,48,35,24,23,20,17,86,56,36,30.27,30.15,10,2,10,1.04
2013-3-28,54,37,21,27,22,18,100,59,30,30.27,30.18,12,2,12,1.04
2013-3-29,54,39,24,36,25,19,96,61,32,30.30,30.18,8,1,8,1.04
2013-3-30,65,51,41,52,39,30,100,69,30,30.21,30.00,11,1,11,1.04
2013-3-31,62,55,51,55,49,42,100,81,52,30.03,29.88,8,2,10,0.53
2013-4-1,62,52,39,53,41,31,100,72,40,30.03,29.88,13,2,13,1.04
2013-4-2,58,47,33,32,25,18,82,44,28,30.18,30.03,2,2,2,1.04
2013-4-3,60,50,38,34,27,23,68,43,30,30.18,30.06,4,3,4,0.00
2013-4-4,52,42,38,43,33,22,100,72,32,30.18,29.94,23,3,23,1.04
2013-4-5,62,48,37,42,36,26,100,69,28,30.09,29.94,10,2,10,1.04
2013-4-6,67,50,29,38,30,24,100,57,26,30.18,30.06,15,2,15,1.04
2013-4-7,68,59,50,40,33,24,52,37,30,30.21,30.06,23,3,23,0.00
2013-4-8,72,63,48,46,42,37,82,48,38,30.18,30.06,17,3,17,0.00
2013-4-9,79,64,46,54,46,42,100,57,34,30.21,30.09,15,2,15,0.00
2013-4-10,82,67,47,56,47,42,100,56,28,30.15,29.94,24,2,24,0.00
2013-4-11,74,68,59,64,50,44,100,56,40,30.00,29.74,124,4,124,1.08
2013-4-12,64,58,42,61,48,38,100,74,42,29.97,29.71,20,3,20,0.83
2013-4-13,70,52,37,42,36,30,100,64,30,30.06,29.94,13,2,13,0.00
2013-4-14,68,51,35,46,39,34,100,68,32,30.06,29.91,32,4,32,0.00
2013-4-15,75,62,53,54,50,46,100,66,42,30.18,29.94,13,2,13,0.00
2013-4-16,78,64,50,60,53,50,100,71,44,30.27,30.15,9,2,9,0.00
2013-4-17,80,66,59,63,58,53,100,79,42,30.27,30.09,9,1,9,0.79
2013-4-18,71,66,57,59,54,50,100,68,46,30.09,29.94,19,4,19,0.00
2013-4-19,68,54,42,63,46,29,100,74,56,30.03,29.76,26,2,26,1.07
2013-4-20,59,45,30,33,29,25,100,58,32,30.24,30.03,8,2,8,0.00
2013-4-21,64,47,31,36,31,26,100,61,30,30.36,30.21,18,3,18,0.00
2013-4-22,68,55,44,39,34,30,70,46,30,30.33,30.12,15,3,15,0.00
2013-4-23,72,55,34,42,36,31,100,54,32,30.21,30.06,21,2,21,0.00
2013-4-24,68,60,51,59,48,40,94,66,44,30.15,30.06,15,2,15,0.13
2013-4-25,66,51,37,48,36,26,100,63,30,30.33,30.15,7,2,7,0.00
2013-4-26,71,51,30,51,35,30,100,61,30,30.39,30.24,11,1,11,0.00
2013-4-27,59,53,49,52,47,38,100,81,56,30.36,30.15,17,2,17,0.54
2013-4-28,59,54,51,56,51,44,100,91,58,30.18,30.00,20,2,20,1.99
2013-4-29,71,58,48,58,49,42,100,79,38,30.06,29.94,5,1,5,0.00
2013-4-30,74,58,41,55,48,41,100,72,42,30.12,30.00,10,2,10,0.00
2013-5-1,71,64,57,51,48,45,74,57,44,30.21,30.12,13,4,13,0.00
2013-5-2,64,60,58,52,48,45,76,66,56,30.24,30.15,15,3,15,0.00
2013-5-3,61,57,55,54,48,43,92,71,56,30.18,30.00,22,4,22,0.04
2013-5-4,57,53,50,49,44,37,86,72,58,30.03,29.85,37,6,37,1.20
2013-5-5,58,54,47,53,48,44,100,81,62,29.88,29.76,28,5,28,1.21
2013-5-6,56,48,42,48,42,37,100,81,56,29.91,29.76,11,1,11,0.20
2013-5-7,66,54,47,50,45,40,100,76,44,30.00,29.88,6,1,6,0.00
2013-5-8,68,57,46,57,50,46,100,80,50,30.12,29.94,6,1,6,0.00
2013-5-9,78,60,46,60,50,46,100,77,36,30.15,30.06,8,1,8,0.00
2013-5-10,73,61,47,60,52,47,100,76,46,30.15,29.97,11,1,11,0.00
2013-5-11,73,61,55,64,57,50,100,89,50,30.03,29.88,10,1,10,0.29
2013-5-12,62,52,38,56,40,29,100,69,34,30.12,29.97,8,1,8,0.00
2013-5-13,63,47,31,42,31,25,100,62,32,30.21,30.09,10,1,10,0.00
2013-5-14,74,54,33,50,40,32,100,65,34,30.24,30.09,10,1,10,0.00
2013-5-15,83,64,46,59,48,42,100,66,26,30.21,30.03,9,1,9,0.00
2013-5-16,78,63,50,61,52,48,100,74,38,30.12,30.00,6,0,6,0.00
2013-5-17,76,64,54,61,53,46,100,72,42,30.15,30.06,8,1,8,0.00
2013-5-18,72,65,60,62,57,52,100,75,58,30.12,30.06,14,2,14,0.33
2013-5-19,70,63,56,66,62,56,100,97,68,30.15,30.03,8,0,8,0.75
2013-5-20,83,67,53,65,57,53,100,76,40,30.15,30.03,6,1,6,0.46
2013-5-21,84,70,58,70,59,53,100,73,38,30.12,29.94,13,1,13,0.46
2013-5-22,81,68,59,65,59,52,100,78,42,30.06,29.88,12,1,12,0.46
2013-5-23,78,66,60,64,55,47,100,71,40,30.03,29.94,13,1,13,0.46
2013-5-24,69,60,44,51,42,29,84,53,30,30.27,30.00,10,2,10,0.00
2013-5-25,76,55,36,45,38,32,100,61,28,30.33,30.18,6,1,6,0.00
2013-5-26,76,57,41,48,43,37,100,65,30,30.30,30.18,6,1,6,0.00
2013-5-27,80,63,46,58,49,44,100,66,30,30.27,30.15,9,1,9,0.00
2013-5-28,80,71,58,58,51,47,92,51,32,30.24,30.15,13,2,13,0.00
2013-5-29,81,70,56,62,53,49,100,60,34,30.24,30.15,13,2,13,0.00
2013-5-30,79,70,60,60,54,50,100,60,40,30.30,30.18,8,2,8,0.00
2013-5-31,79,70,62,60,54,51,92,59,42,30.24,30.12,0,0,0,0.00
2013-6-1,78,71,61,67,57,54,100,63,46,30.18,30.03,15,2,15,0.09
2013-6-2,76,69,66,70,64,58,100,83,56,30.06,29.94,11,2,11,0.95
2013-6-3,78,68,58,67,60,52,100,80,44,30.03,29.91,7,1,7,0.00
2013-6-4,81,66,51,64,56,51,100,74,40,30.09,30.00,6,1,6,0.00
2013-6-5,81,69,60,68,60,54,100,78,44,30.09,29.94,11,2,11,1.53
2013-6-6,78,68,59,66,61,56,100,82,50,30.00,29.79,8,1,8,0.00
2013-6-7,80,68,62,67,62,54,100,82,42,29.94,29.74,8,1,8,0.13
2013-6-8,79,67,57,63,57,52,100,75,42,30.15,29.88,6,1,6,0.00
2013-6-9,80,68,60,67,60,54,100,77,42,30.18,30.03,14,2,14,0.37
2013-6-10,77,69,63,65,59,51,100,74,42,30.06,29.94,13,2,13,0.75
2013-6-11,82,71,64,70,64,56,100,81,44,30.09,30.00,7,1,7,0.17
2013-6-12,86,72,61,73,64,57,100,78,42,30.12,30.00,8,0,8,0.00
2013-6-13,85,71,63,72,64,56,100,84,42,30.03,29.79,13,1,13,0.45
2013-6-14,81,66,56,64,54,42,100,71,30,30.09,29.91,6,1,6,0.00
2013-6-15,80,65,51,61,53,46,100,70,32,30.18,30.06,6,0,6,0.00
2013-6-16,81,68,54,68,56,50,100,73,40,30.21,30.06,4,0,4,0.13
2013-6-17,79,69,65,70,64,56,100,88,50,30.12,30.00,9,0,9,1.20
2013-6-18,77,68,64,69,64,57,100,87,52,30.03,29.88,8,0,8,0.17
2013-6-19,80,70,64,66,60,52,100,77,40,30.18,29.94,6,0,6,0.91
2013-6-20,79,68,58,69,60,51,100,81,40,30.27,30.12,8,0,8,0.00
2013-6-21,79,68,60,67,60,50,100,81,40,30.27,30.21,6,0,6,0.09
2013-6-22,82,71,58,67,54,46,100,61,32,30.30,30.12,0,0,0,0.00
2013-6-23,83,68,56,66,58,53,100,74,40,30.24,30.12,8,0,8,0.00
2013-6-24,83,70,63,70,63,55,100,82,40,30.30,30.15,0,0,0,0.12
2013-6-25,80,69,60,69,62,54,100,81,44,30.21,30.09,3,0,3,0.08
2013-6-26,83,70,62,72,64,56,100,83,42,30.15,30.00,5,0,5,0.42
2013-6-27,83,73,65,70,63,58,100,74,46,30.06,29.85,9,0,9,0.08
2013-6-28,86,72,63,74,61,50,100,74,32,29.94,29.74,7,0,7,0.08
2013-6-29,81,70,60,69,56,43,100,69,28,29.82,29.71,0,0,0,0.08
2013-6-30,81,68,54,64,54,45,100,68,30,29.85,29.76,0,0,0,0.00
2013-7-1,80,67,60,68,61,49,100,84,36,29.97,29.82,0,0,0,0.50
2013-7-2,126,72,63,100,55,49,100,58,36,30.15,29.94,12,1,12,0.08
2013-7-3,72,66,63,68,62,53,100,89,54,30.24,30.12,57,1,57,3.69
2013-7-4,74,67,63,69,61,54,100,83,52,30.24,30.12,172,2,172,2.49
2013-7-5,78,70,66,68,58,52,100,68,46,30.24,30.15,15,2,15,0.58
2013-7-6,78,71,66,68,61,54,100,73,46,30.21,30.12,15,2,15,1.87
2013-7-7,77,71,67,68,62,53,100,74,44,30.21,30.12,7,0,7,0.12
2013-7-8,84,72,65,70,62,54,100,75,40,30.21,30.15,6,0,6,0.00
2013-7-9,85,72,65,72,65,53,100,84,36,30.24,30.12,8,0,8,2.29
2013-7-10,85,72,65,73,64,55,100,81,40,30.18,30.00,6,0,6,0.00
2013-7-11,80,72,66,71,64,55,100,79,42,30.06,29.94,3,0,3,0.00
2013-7-12,82,72,65,70,61,49,100,72,34,30.03,29.94,6,0,6,0.00
2013-7-13,76,70,64,64,56,51,100,63,44,30.15,30.00,11,1,11,0.00
2013-7-14,76,70,67,70,61,53,100,74,50,30.30,30.09,22,2,22,0.46
2013-7-15,82,73,64,67,57,51,100,61,38,30.33,30.24,10,2,10,0.13
2013-7-16,87,75,64,69,59,49,100,64,28,30.36,30.27,5,0,5,0.13
2013-7-17,88,72,62,72,63,50,100,80,28,30.36,30.18,5,0,5,1.04
2013-7-18,85,72,62,69,62,55,100,77,40,30.27,30.12,8,0,8,0.13
2013-7-19,83,71,63,71,64,56,100,83,42,30.21,30.06,6,0,6,0.09
2013-7-20,82,71,64,72,64,55,100,83,42,30.12,30.00,6,0,6,0.62
2013-7-21,85,72,65,71,64,52,100,83,34,30.12,29.97,10,0,10,0.12
2013-7-22,81,72,64,69,61,53,100,74,40,30.06,29.94,7,1,7,0.00
2013-7-23,81,71,65,68,61,54,100,73,42,30.03,29.88,7,0,7,0.00
2013-7-24,78,70,68,69,66,56,100,90,50,29.94,29.88,4,0,4,0.00
2013-7-25,84,75,63,69,57,47,100,58,28,30.09,29.94,6,1,6,0.00
2013-7-26,81,67,57,66,58,48,100,76,34,30.12,30.03,14,1,14,0.00
2013-7-27,79,70,63,69,59,44,100,74,30,30.06,29.94,9,0,9,0.00
2013-7-28,80,69,60,68,59,51,100,76,38,30.09,29.97,6,0,6,0.00
2013-7-29,79,66,57,64,53,40,100,71,28,30.24,30.06,4,0,4,0.00
2013-7-30,84,67,53,62,52,42,100,67,26,30.30,30.15,4,0,4,0.00
2013-7-31,76,70,65,67,61,54,100,77,48,30.21,30.00,4,0,4,0.04
2013-8-1,82,72,63,69,62,52,100,75,40,30.06,29.94,6,0,6,0.00
2013-8-2,83,69,58,68,58,47,100,74,30,30.09,30.00,6,0,6,0.00
2013-8-3,80,69,60,68,59,51,100,75,38,30.12,30.06,6,0,6,0.00
2013-8-4,82,71,60,70,58,47,100,71,32,30.12,30.03,7,1,7,0.00
2013-8-5,84,69,57,64,56,44,100,70,26,30.12,30.03,5,0,5,0.00
2013-8-6,82,71,64,68,59,51,100,70,40,30.09,30.00,4,0,4,0.00
2013-8-7,78,71,67,71,66,57,100,87,50,30.12,30.03,6,0,6,0.30
2013-8-8,82,73,68,73,66,55,100,84,42,30.12,30.06,8,0,8,0.08
2013-8-9,82,73,68,73,65,55,100,80,42,30.18,30.06,7,0,7,0.00
2013-8-10,81,71,66,74,66,58,100,85,50,30.21,30.12,6,0,6,0.37
2013-8-11,84,72,64,72,64,53,100,78,40,30.21,30.15,6,0,6,0.00
2013-8-12,84,71,64,72,64,53,100,81,36,30.18,30.06,4,0,4,0.00
2013-8-13,81,71,66,71,66,56,100,88,42,30.09,29.94,5,0,5,0.54
2013-8-14,79,69,64,67,59,44,100,75,30,30.09,29.94,3,0,3,0.04
2013-8-15,73,66,59,63,48,42,96,54,36,30.12,30.06,10,2,10,0.04
2013-8-16,72,64,57,57,49,42,98,61,42,30.15,30.06,13,1,13,0.00
2013-8-17,69,64,61,64,53,46,100,70,46,30.18,30.09,13,1,13,0.29
2013-8-18,74,66,62,66,61,50,100,87,44,30.24,30.12,9,0,9,0.25
2013-8-19,77,68,64,68,62,52,100,83,44,30.21,30.09,10,0,10,0.83
2013-8-20,79,68,60,68,61,53,100,81,42,30.24,30.12,5,0,5,0.00
2013-8-21,72,66,62,70,65,58,100,96,64,30.30,30.18,5,0,5,0.54
2013-8-22,81,69,63,72,64,55,100,86,42,30.24,30.09,7,0,7,0.33
2013-8-23,83,69,63,70,63,49,100,85,32,30.18,30.03,4,0,4,0.00
2013-8-24,80,69,60,69,58,47,100,71,40,30.30,30.12,10,1,10,0.00
2013-8-25,78,65,55,59,52,41,100,66,30,30.39,30.27,5,1,5,0.00
2013-8-26,80,65,54,63,54,43,100,74,30,30.36,30.18,6,0,6,0.00
2013-8-27,81,67,56,66,58,48,100,79,34,30.24,30.06,5,0,5,0.00
2013-8-28,85,70,60,70,60,49,100,76,32,30.15,30.03,5,0,5,0.00
2013-8-29,84,72,62,73,62,54,100,76,38,30.12,30.00,6,0,6,0.00
2013-8-30,86,72,63,73,63,51,100,78,32,30.09,29.97,6,0,6,0.00
2013-8-31,85,72,64,73,65,53,100,83,36,30.06,29.94,7,0,7,0.08
2013-9-1,82,70,66,72,65,53,100,86,40,30.03,29.91,6,0,6,0.37
2013-9-2,79,69,64,71,64,54,100,85,44,30.03,29.91,4,0,4,0.00
2013-9-3,82,70,63,70,62,47,100,78,30,30.06,29.94,6,0,6,0.42
2013-9-4,81,68,60,67,59,48,100,79,32,30.18,30.06,6,0,6,0.42
2013-9-5,82,67,59,68,59,45,100,80,30,30.18,30.12,4,0,4,0.00
2013-9-6,82,68,60,68,57,45,100,76,30,30.21,30.09,4,0,4,0.00
2013-9-7,80,66,56,66,57,45,100,78,30,30.18,30.06,5,0,5,0.00
2013-9-8,82,68,58,70,58,45,100,76,30,30.09,30.00,6,0,6,0.00
2013-9-9,83,68,59,68,59,47,100,79,30,30.18,30.06,6,0,6,0.00
2013-9-10,84,69,57,68,58,47,100,74,28,30.27,30.18,6,0,6,0.00
2013-9-11,84,69,57,68,57,45,100,73,28,30.30,30.15,4,0,4,0.00
2013-9-12,79,68,62,71,61,53,100,82,42,30.18,29.97,5,0,5,0.00
2013-9-13,76,66,51,67,53,38,100,71,28,30.00,29.88,8,1,8,0.00
2013-9-14,76,58,45,57,46,38,100,72,28,30.12,29.94,5,0,5,0.00
2013-9-15,77,62,49,62,50,38,100,73,28,30.21,30.12,11,1,11,0.00
2013-9-16,80,64,55,66,53,40,100,74,28,30.21,30.12,6,0,6,0.00
2013-9-17,73,64,57,62,48,37,100,63,32,30.30,30.18,8,1,8,0.00
2013-9-18,71,63,57,57,47,38,96,58,38,30.30,30.18,8,1,8,0.00
2013-9-19,78,63,51,62,54,45,100,77,34,30.21,30.12,4,0,4,0.00
2013-9-20,79,66,54,66,53,43,100,71,30,30.15,29.97,11,1,11,0.00
2013-9-21,72,66,57,66,57,50,100,76,46,30.00,29.76,18,2,18,1.54
2013-9-22,73,59,51,60,51,36,100,80,28,29.97,29.82,5,0,5,0.00
2013-9-23,74,59,49,61,49,38,100,76,28,30.12,29.94,6,0,6,58.36
2013-9-24,70,60,49,61,53,49,100,82,50,30.12,29.94,4,0,4,0.00
2013-9-25,66,62,60,64,60,49,100,96,56,29.97,29.88,4,0,4,1.95
2013-9-26,74,65,59,62,54,42,100,70,32,30.06,29.91,4,0,4,0.00
2013-9-27,75,62,54,58,51,37,100,76,28,30.18,30.06,7,0,7,0.00
2013-9-28,72,60,48,58,47,37,100,67,30,30.24,30.12,12,1,12,0.00
2013-9-29,68,57,46,56,47,35,100,75,32,30.18,30.06,4,0,4,0.00
2013-9-30,71,58,46,57,48,37,100,75,32,30.12,30.03,7,0,7,0.00
2013-10-1,74,58,47,59,49,39,100,78,28,30.21,30.09,3,0,3,0.00
2013-10-2,78,61,50,64,52,41,100,77,28,30.24,30.09,4,0,4,0.00
2013-10-3,77,64,56,64,54,41,100,77,28,30.18,30.09,6,0,6,0.00
2013-10-4,79,61,50,64,53,42,100,79,28,30.24,30.12,5,0,5,0.00
2013-10-5,82,64,53,65,54,43,100,77,26,30.21,30.06,6,0,6,0.00
2013-10-6,76,65,55,66,52,41,100,70,30,30.09,29.91,15,2,15,0.24
2013-10-7,68,58,48,64,51,36,100,81,32,30.03,29.88,11,0,11,0.58
2013-10-8,73,57,46,57,46,37,100,75,28,30.18,30.03,7,0,7,0.00
2013-10-9,74,60,45,55,46,37,100,67,28,30.24,30.12,5,0,5,0.00
2013-10-10,72,56,48,62,46,35,100,76,30,30.18,30.06,6,0,6,0.00
2013-10-11,74,56,43,56,45,36,100,75,28,30.12,30.00,6,0,6,0.00
2013-10-12,70,51,45,60,48,40,100,92,34,30.15,30.06,4,0,4,0.00
2013-10-13,74,58,47,59,50,40,100,79,34,30.24,30.15,4,0,4,0.00
2013-10-14,73,61,53,62,51,42,100,74,34,30.27,30.15,8,0,8,0.00
2013-10-15,67,59,52,57,49,43,100,72,44,30.18,30.06,7,1,7,0.00
2013-10-16,68,59,50,60,52,43,100,81,42,30.12,30.00,4,0,4,0.00
2013-10-17,68,62,58,64,56,47,100,84,54,30.03,29.91,6,0,6,0.21
2013-10-18,67,56,48,51,45,37,100,71,36,30.06,29.94,5,0,5,0.21
2013-10-19,61,53,45,53,44,32,100,76,34,30.03,29.94,6,0,6,0.21
2013-10-20,65,47,37,44,36,25,100,71,30,30.09,30.00,6,1,6,0.21
2013-10-21,67,49,34,51,37,-1,100,71,30,30.15,30.03,8,1,8,0.00
2013-10-22,68,55,-1,55,42,-32,100,71,20,30.06,29.85,6,0,6,0.00
2013-10-23,52,44,31,47,31,16,100,65,32,30.09,29.82,12,1,12,0.00
2013-10-24,57,41,30,39,28,20,100,65,30,30.18,30.06,7,1,7,0.00
2013-10-25,51,38,26,30,19,12,76,48,32,30.33,30.18,9,1,9,0.00
2013-10-26,51,29,22,30,20,17,100,74,32,30.33,30.24,8,0,8,0.00
2013-10-28,55,53,50,54,53,48,100,98,92,30.27,30.24,2,0,2,14.37
2013-10-29,68,53,41,56,47,41,100,84,41,30.33,30.24,6,0,6,0.00
2013-10-30,73,59,48,59,48,34,100,73,39,30.33,30.18,7,1,7,0.00
2013-10-31,68,64,55,52,47,40,80,55,44,30.21,29.85,22,3,22,0.00
2013-11-1,72,62,46,61,48,37,100,64,40,29.88,29.74,18,2,18,0.21
2013-11-2,61,48,36,47,36,25,100,67,40,30.09,29.82,9,1,9,0.00
2013-11-3,60,42,30,42,32,27,100,73,40,30.30,30.06,4,1,4,0.00
2013-11-4,58,44,33,35,30,24,100,63,40,30.39,30.30,12,2,12,0.00
2013-11-5,66,47,34,42,34,27,100,64,40,30.41,30.30,6,1,6,14.58
2013-11-6,66,58,40,50,44,32,83,62,43,30.33,30.15,13,2,13,0.00
2013-11-7,61,51,32,57,40,24,100,70,44,30.21,30.03,115,2,115,0.03
2013-11-8,56,38,26,32,25,18,100,64,40,30.30,30.18,6,1,6,0.00
2013-11-9,57,40,25,33,27,7,100,65,31,30.33,30.21,6,0,6,14.74
2013-11-10,66,45,31,42,31,23,95,60,39,30.27,30.18,10,1,10,14.74
2013-11-11,64,44,25,40,31,22,100,67,39,30.30,30.15,5,1,6,0.16
2013-11-12,53,37,21,35,20,6,100,50,41,30.36,28.14,6,2,10,0.16
2013-11-13,46,26,14,25,14,8,90,62,43,30.47,30.33,4,1,4,0.00
2013-11-14,59,33,15,35,19,0,96,60,40,30.41,30.24,6,1,6,0.00
2013-11-15,56,41,25,52,35,6,100,80,47,30.27,30.09,18,1,18,0.17
2013-11-16,61,55,49,54,48,44,100,78,56,30.21,30.09,15,1,15,0.00
2013-11-17,65,62,60,62,53,46,100,73,57,30.15,29.91,20,4,20,0.29
2013-11-18,63,55,38,62,37,19,100,56,29,30.06,29.88,12,2,12,0.04
2013-11-19,56,40,28,32,26,20,83,59,40,30.15,30.03,8,1,8,0.04
2013-11-20,55,44,34,32,24,19,72,45,41,30.30,30.12,15,3,15,0.04
2013-11-21,61,49,34,51,41,26,100,74,55,30.33,30.24,8,1,8,0.00
2013-11-22,64,58,51,59,53,49,100,87,64,30.33,30.18,8,1,8,0.08
2013-11-23,56,45,28,56,39,19,100,79,46,30.27,30.12,5,1,5,0.00
2013-11-24,43,29,21,24,13,4,83,51,44,30.41,30.24,8,1,8,0.00
2013-11-25,48,33,21,42,19,10,100,58,43,30.41,30.15,15,1,15,0.04
2013-11-26,47,44,38,46,42,32,100,96,69,30.15,29.71,13,1,13,4.19
2013-11-27,40,30,20,40,20,8,100,68,49,30.15,29.68,8,2,10,0.13
2013-11-28,48,26,14,26,16,9,92,67,42,30.41,30.15,5,1,5,0.00
2013-11-29,55,31,18,32,22,15,100,73,41,30.47,30.36,4,1,4,0.00
2013-11-30,52,27,21,30,22,-1,100,86,11,30.44,30.30,4,0,4,0.00
2013-12-1,54,38,29,31,27,22,84,67,41,30.30,30.00,6,1,6,0.00
2013-12-2,48,42,33,46,38,28,100,85,72,30.03,29.82,2,0,2,0.04
2013-12-3,57,50,45,52,46,43,100,87,62,29.94,29.82,8,1,8,0.08
2013-12-4,64,56,47,58,49,46,100,79,55,30.06,29.94,17,2,17,4.89
2013-12-5,70,62,56,64,58,52,100,87,57,30.09,30.00,57,1,57,0.58
2013-12-6,69,65,53,58,54,46,100,68,54,30.09,29.94,22,4,22,0.79
2013-12-7,53,42,38,53,41,36,100,94,77,30.30,30.06,5,0,5,0.00
2013-12-8,58,45,42,56,43,36,100,93,67,30.24,30.06,22,1,22,0.50
2013-12-9,59,53,48,54,49,43,100,89,60,30.15,30.00,24,2,24,0.78
2013-12-10,50,39,23,50,32,15,100,80,44,30.30,29.94,15,1,15,0.38
2013-12-11,50,27,18,28,19,14,100,74,42,30.41,30.27,4,1,4,0.87
2013-12-12,41,27,19,26,17,11,100,68,44,30.39,30.30,6,1,6,0.00
2013-12-13,51,32,16,28,19,11,95,61,42,30.36,30.12,4,0,4,0.00
2013-12-14,52,45,37,42,30,18,78,56,43,30.15,29.91,22,3,22,0.37